Location: Unspecified
(0.0000°N, 0.0000°E)
Time: 02:50:47
(UTC+00:00)

CP4 - Visible Passes

Search period start: 16 May 2026 00:00
Search period end: 26 May 2026 00:00
Orbit: 621 x 723 km, 98.4° (Epoch: 15 May)

Date Brightness Start Highest point End Pass type
(mag) Time Alt. Az. Time Alt. Az. Time Alt. Az.
16 May ? 03:56:37 10° NNE 04:01:00 42° ESE 04:03:11 26° SSE visible
17 May ? 04:29:36 10° N 04:34:13 68° WNW 04:36:57 25° SSW visible
18 May ? 03:27:40 10° ENE 03:30:41 17° ESE 03:32:27 14° SE visible
18 May ? 05:03:42 10° NNW 05:07:28 24° WNW 05:10:42 13° SW visible
19 May ? 03:59:24 10° NNE 04:03:52 46° ESE 04:06:13 26° SSE visible
20 May ? 04:32:27 10° N 04:37:05 63° WNW 04:39:58 23° SSW visible
21 May ? 03:30:17 10° ENE 03:33:32 18° ESE 03:35:28 15° SE visible
21 May ? 05:06:39 10° NNW 05:10:20 23° WNW 05:13:43 12° SW visible
22 May ? 04:02:09 10° NNE 04:06:43 49° ESE 04:09:13 25° SSE visible
23 May ? 04:35:18 10° N 04:39:56 59° WNW 04:42:57 22° SSW visible
24 May ? 03:32:56 10° ENE 03:36:22 20° ESE 03:38:26 15° SE visible
24 May ? 05:09:35 10° NNW 05:13:11 22° WNW 05:16:41 11° SW visible
25 May ? 04:04:56 10° NNE 04:09:34 53° ESE 04:12:11 25° S visible
